Other Public Products
Issued by NWS Grand Forks, ND

Home | Current Version | Previous Version | Text Only | Print | Product List | Glossary Off
Versions: 1 2 3 4 5 6 7 8 9 10 11 12 13 14 15 16 17 18 19 20 21 22 23 24 25 26 27 28 29 30 31 32 33 34 35 36 37 38 39 40 41 42 43 44 45 46 47 48 49 50

000
FPUS83 KFGF 300210
OPUFGF
PRAIRIE TO PINES WEATHER ROUNDUP
NATIONAL WEATHER SERVICE EASTERN NORTH DAKOTA/GRAND FORKS ND
800 PM CST THU JAN 29 2015

 **SATELLITE DATA USED TO AUGMENT SKY COVER AT AUTOMATED STATIONS**
 *****  WEATHER ACROSS EASTERN NORTH DAKOTA  *****

CITY           SKY/WX    TMP DP  RH WIND       PRES   REMARKS
GRAND FORKS    PTCLDY     4   0  83 N3        30.58R
GRAND FORKS AF PTCLDY     4  -1  80 N3        30.58S
GRAND CITY NWS   N/A      5 N/A N/A VRB7        N/A  WCI  -7
BUXTON         NOT AVBL
DEVILS LAKE    CLOUDY    10   3  72 E3        30.51R
FARGO          FAIR      10   3  73 NE9       30.57R WCI  -3
WAHPETON ARPT  CLEAR     14   7  73 N6        30.56S WCI   5
$$

 *****  WEATHER ACROSS CENTRAL AND WESTERN NORTH DAKOTA  *****

CITY           SKY/WX    TMP DP  RH WIND       PRES   REMARKS
JAMESTOWN      CLOUDY    17  11  77 NW5       30.50S WCI  10
BISMARCK       CLEAR     18  16  92 SE7       30.47S WCI   9
MINOT          CLEAR     13   9  84 E5        30.43F WCI   5
MINOT AFB      CLEAR     11  11  98 SE9       30.44F WCI  -2
GARRISON         N/A     18  15  88 SE8       30.42F WCI   8
WILLISTON      CLEAR     26  20  77 CALM      30.34F
DICKINSON      CLEAR     24  17  74 SE9       30.34F WCI  14
HETTINGER      CLEAR     25  17  72 SE3       30.38S
$$

 *****  OTHER OBSERVATIONS NORTHEAST NORTH DAKOTA  *****

CITY           SKY/WX    TMP DP  RH WIND       PRES   REMARKS
WALHALLA         N/A      5   0  78 CALM      30.57S
LANGDON        NOT AVBL
CAVALIER       FAIR       5   0  78 CALM      30.58S
GRAFTON        NOT AVBL
CANDO          CLOUDY     9   5  85 E7        30.50F WCI  -3
FORT TOTTEN    NOT AVBL
ROLLA          CLOUDY     7   5  92 SE5       30.46F WCI  -2
RUGBY          CLOUDY     7   3  85 S6        30.48F WCI  -3
 ***** THE ABOVE OBSERVATIONS ARE NON NWS ARE NOT QUALITY
        CONTROLLED AND MAY MIS-REPORT RAIN FOR SNOW...
$$

 *****  OTHER OBSERVATIONS SOUTHEAST NORTH DAKOTA *****

CITY           SKY/WX    TMP DP  RH WIND       PRES   REMARKS
COOPERSTOWN    NOT AVBL
VALLEY CITY    CLOUDY    14  12  92 N3        30.52S
OAKES            N/A     18  14  86 N7        30.54R WCI   8
GWINNER        CLOUDY    19  12  73 N10       30.55R WCI   8
BUFFALO        NOT AVBL
WYNDMERE         N/A     14   9  79 N7          N/A  WCI   4
 ***** THE ABOVE OBSERVATIONS ARE NON NWS ARE NOT QUALITY
       CONTROLLED AND MAY MIS-REPORT RAIN FOR SNOW...
$$

  *****  WEATHER ACROSS NORTHERN MINNESOTA  *****

CITY           SKY/WX    TMP DP  RH WIND       PRES   REMARKS
FLAG ISLAND    PTCLDY     0  -6  78 NW10      30.51R WCI -17
WARROAD        MOCLDY     0  -6  78 NW6       30.52S WCI -12
ROSEAU         MOCLDY     1  -6  71 NW7       30.53S WCI -11
HALLOCK        PTCLDY     1  -2  85 CALM      30.57R
THF RVR FALLS  PTCLDY     1  -2  85 NW5       30.53S WCI  -8
HALSTAD          N/A      6   0  74 N6          N/A  WCI  -4
FOSSTON        PTCLDY     0  -2  92 NW7       30.52S WCI -13
BAUDETTE       PTCLDY     0  -5  79 NW8       30.48S WCI -14
WASKISH        PTCLDY     3   0  85 CALM      30.50R
CROOKSTON      MOCLDY     5   1  85 N9        30.59R WCI  -9
$$
  *****  WEATHER ACROSS CENTRAL AND WEST MINNESOTA  *****

CITY           SKY/WX    TMP DP  RH WIND       PRES   REMARKS
BEMIDJI        PTCLDY     2  -2  81 NW7       30.48S WCI -10
PARK RAPIDS    CLOUDY     7   2  80 NW9       30.47S WCI  -7
WADENA         CLEAR      7   3  85 NW9       30.48S WCI  -7
DETROIT LAKES  PTCLDY     7   3  85 N9        30.51S WCI  -7
MOORHEAD       CLEAR      9   7  92 N10       30.57S WCI  -6
FERGUS FALLS   CLEAR      9   1  72 N5        30.57R WCI   0
ELBOW LAKE     FAIR      10   6  81 N12       30.52R WCI  -4
MORRIS MN      CLEAR     14   9  79 N13       30.51F WCI   0
STAPLES        MOCLDY     9   3  78 N9        30.48S WCI  -5
WHEATON        CLOUDY    12   9  85 N6        30.57R WCI   3
$$
  *****  WEATHER ELSEWHERE ACROSS MINNESOTA  *****

CITY           SKY/WX    TMP DP  RH WIND       PRES   REMARKS
DULUTH         MOCLDY     9   0  67 NW13      30.40R WCI  -7
INTRNTL FALLS  CLEAR      0  -5  79 NW5       30.47R WCI -10
ELY            CLOUDY     9   1  72 N5        30.39R WCI   0
CLOQUET        CLEAR      9   0  66 NW7       30.43R WCI  -3
BRAINERD       PTCLDY    12   4  70 NW9       30.48R WCI   0
HIBBING        PTCLDY     7  -2  66 N15       30.43R WCI -10
ALEXANDRIA     CLEAR     11   5  77 NW12      30.49R WCI  -3
SAINT CLOUD    CLEAR     16   7  67 NW9       30.49R WCI   4
MINNEAPOLIS    PTCLDY    20   8  60 N13G28    30.48R WCI   7
$$

  *****  WEATHER ACROSS SOUTH DAKOTA  *****

CITY           SKY/WX    TMP DP  RH WIND       PRES   REMARKS
SIOUX FALLS    CLOUDY    24  17  74 NW9       30.52R WCI  14
BROOKINGS      NOT AVBL
WATERTOWN      CLOUDY    20  14  77 N10       30.49R WCI   9
HURON          CLEAR     22  18  85 NE8       30.52S WCI  12
SISSETON         N/A     17  11  77 N7        30.54R WCI   8
ABERDEEN       CLOUDY    22  15  75 N9        30.54R WCI  12
MITCHELL       CLEAR     23  19  85 NE3       30.54R
PIERRE         CLEAR     25  20  81 E8        30.46S WCI  16
MOBRIDGE       CLEAR     27  20  75 E9        30.44S WCI  18
RAPID CITY     CLEAR     26  14  60 CALM      30.38F
$$

  *****  SOME WEATHER IN NEARBY STATES *****

CITY           SKY/WX    TMP DP  RH WIND       PRES   REMARKS
GLASGOW MT     CLEAR     32  26  78 E13       30.23F WCI  22
GREAT FALLS MT MOCLDY    41  20  43 S14       30.21R
CHEYENNE WY    MOCLDY    33  19  56 S10       30.37S WCI  25
SCOTTSBLUFF NE CLEAR     30  23  75 E8        30.40S WCI  22
OMAHA NE       CLEAR     31  23  72 N13       30.52R WCI  21
DES MOINES IA  MOCLDY    31  20  63 N15G23    30.47R WCI  20
DAVENPORT IA   CLOUDY    31  21  66 NW24G32   30.33R WCI  17
CHICAGO IL     CLOUDY    34  21  59 NW12      30.20R
EAU CLAIRE WI  CLOUDY    21   9  59 N12G24    30.39R WCI   9
LA CROSSE WI   CLOUDY    28  16  60 NW14      30.36R WCI  17
$$

  *****  SOME NATIONAL WEATHER *****

CITY           SKY/WX    TMP DP  RH WIND       PRES   REMARKS
LA GUARDIA NY  CLOUDY    35  26  69 S8        30.06F
RALEIGH NC     MOCLDY    39  23  52 CALM      30.09F
ATLANTA GA     CLOUDY    54  32  43 SW7       30.12F
NEW ORLEANS LA PTCLDY    65  55  70 SW9       30.22R
OKLAHOMA CITY  MOCLDY    46  27  47 NE8       30.48R
ALBUQUERQUE NM CLOUDY    45  20  36 E23G35    30.39R
SALT LAKE CITY CLOUDY    39  35  86 W5        30.26R
LOS ANGELES CA CLOUDY    63  50  62 W9        30.01R
BOISE ID       CLOUDY    42  34  73 NW6       30.34R
SEATTLE WA     CLEAR     45  37  73 N6        30.31R
$$

*** WEATHER ACROSS MANITOBA...SASKATCHEWAN AND ONTARIO ***
                ***ONTARIO***

CITY           SKY/WX    TMP DP  RH WIND       PRES   REMARKS
GERALDTON      PTCLDY    -4  -9  77 NW8       30.28R WCI -19
THUNDER BAY    PTCLDY     7  -2  66 NW20G26   30.40R WCI -13
SIOUX LOOKOUT  NOT AVBL
TORONTO        FLURRIES  30  25  80 NW15      29.77R WCI  19
BIG TROUT LK   MOCLDY    -9 -17  70 NW12G18   30.31R WCI -29
PICKLE LAKE    CRYSTALS  -8 -13  77 W10       30.32R WCI -26
DRYDEN         MOCLDY     0  -4  85 NW8       30.43R WCI -15
KENORA         CLEAR     -2  -8  78 NW9       30.46S WCI -18
$$
                *** MANITOBA***

CITY           SKY/WX    TMP DP  RH WIND       PRES   REMARKS
BRANDON        FLURRIES   5   0  78 W2        30.50F
DAUPHIN        MOCLDY     0  -6  78 S3        30.49F
ISLAND LAKE    CLEAR    -11 -18  70 W10       30.43S WCI -30
PILOT MOUND      N/A     -2  -6  84 CALM        N/A
THE PAS        CLOUDY    -4 -11  71 S5        30.43F WCI -15
THOMPSON       CLEAR    -11 -17  77 W9        30.37F WCI -29
WINNIPEG       CLEAR     -2  -9  71 W6        30.58S WCI -14
LYNN LAKE      CLEAR    -18 -22  83 CALM      30.31S
CHURCHILL      FLURRIES -13 -22  64 NW23G29   30.22F WCI -41
GILLAM         CLEAR     -8 -17  65 W12       30.28F WCI -27
$$
                ***SASKATCHEWAN***

CITY           SKY/WX    TMP DP  RH WIND       PRES   REMARKS
ESTEVAN        MOCLDY    16  12  86 E10       30.36F WCI   3
KINDERSLEY     PTCLDY    16  14  93 NE5       30.19F WCI   9
LLOYDMINSTER   MOCLDY    12  10  92 S7        30.17F WCI   2
PRINCE ALBERT  FLURRIES   5   1  85 E6        30.31F WCI  -6
REGINA         MOCLDY    16  14  93 SE14      30.31F WCI   1
YORKTON        MOCLDY     5   1  85 SE10      30.36F WCI -10


USA.gov is the U.S. government's official web portal to all federal, state and local government web resources and services.